This demonstration page uses our WeatherBlox Daily Observations layout. Learn more.

40.92945, -100.16068

Hourly Observations for December 5, 2019

Temp ( °F °C ) Dew Point ( °F °C ) Humidity (%) Winds ( mph kmh ) Pressure ( in mb ) Visibility ( mi km ) Precip ( " mm )
12:15 am 00:15 Clear 27 -2.6 27 -3 97 97 SSW 5 7 30.03 1017 10 16.0934 0 0
12:35 am 00:35 Clear 28 -2.5 27 -2.9 97 97 SW 3 6 30.02 1017 10 16.0934 0 0
12:55 am 00:55 Clear 28 -2 28 -2.5 96 96 Calm 30.02 1016 10 16.0934 0 0
1:15 am 01:15 Clear 28 -2.5 27 -2.8 98 98 Calm 30.01 1016 10 16.0934 0 0
1:35 am 01:35 Clear 28 -2.5 27 -2.8 98 98 Calm 30.01 1016 10 16.0934 0 0
1:55 am 01:55 Clear 27 -2.6 27 -2.9 98 98 Calm 30 1016 10 16.0934 0 0
2:15 am 02:15 Clear 27 -2.6 27 -2.8 99 99 Calm 30 1016 10 16.0934 0 0
2:35 am 02:35 Clear 27 -2.7 26 -3.1 97 97 Calm 29.99 1016 10 16.0934 0 0
2:55 am 02:55 Clear 27 -2.9 26 -3.1 99 99 Calm 30 1016 10 16.0934 0 0
3:15 am 03:15 Clear 27 -3 26 -3.3 98 98 Calm 29.99 1015 10 16.0934 0 0
3:35 am 03:35 Clear 26 -3.5 25 -3.9 97 97 Calm 29.99 1016 10 16.0934 0 0
3:55 am 03:55 Clear 26 -3.5 25 -4 96 96 Calm 29.99 1016 10 16.0934 0 0
4:15 am 04:15 Clear 26 -3.6 25 -4.1 96 96 NW 3 6 29.99 1016 10 16.0934 0 0
4:35 am 04:35 Clear 26 -3.1 26 -3.5 97 97 Calm 29.98 1015 10 16.0934 0 0
4:55 am 04:55 Clear 26 -3.5 25 -3.9 97 97 NW 5 7 29.99 1016 10 16.0934 0 0
5:15 am 05:15 Clear 25 -4 24 -4.6 96 96 WNW 6 9 30 1016 10 16.0934 0 0
5:35 am 05:35 Clear 25 -4 24 -4.5 96 96 WNW 6 9 30 1016 10 16.0934 0 0
5:55 am 05:55 Clear 26 -3.5 25 -4 96 96 W 5 7 29.99 1016 10 16.0934 0 0
6:15 am 06:15 Clear 26 -3.1 25 -3.7 96 96 Calm 29.99 1015 10 16.0934 0 0
6:35 am 06:35 Clear 26 -3.2 25 -3.8 96 96 Calm 29.99 1016 10 16.0934 0 0
6:55 am 06:55 Clear 26 -3.6 24 -4.2 96 96 Calm 29.98 1015 10 16.0934 0 0
7:15 am 07:15 Clear 26 -3.5 25 -4.1 96 96 Calm 29.98 1015 10 16.0934 0 0
7:35 am 07:35 Clear 26 -3.6 24 -4.2 96 96 Calm 29.99 1016 10 16.0934 0 0
7:55 am 07:55 Sunny 26 -3.4 25 -4 96 96 NNW 3 6 29.99 1016 10 16.0934 0 0
8:15 am 08:15 Sunny 25 -3.7 24 -4.5 94 94 NW 6 9 29.99 1016 10 16.0934 0 0
8:35 am 08:35 Sunny 27 -3 26 -3.6 96 96 NW 7 11 30 1016 10 16.0934 0 0
8:55 am 08:55 Sunny 29 -1.6 28 -2.4 94 94 NW 7 11 29.99 1016 10 16.0934 0 0
9:15 am 09:15 Sunny 32 -0.1 30 -1.2 92 92 WNW 7 11 29.98 1015 10 16.0934 0 0
9:35 am 09:35 Sunny 33 0.5 31 -0.7 92 92 W 7 11 29.97 1015 10 16.0934 0 0
9:55 am 09:55 Sunny 33 0.7 31 -0.5 92 92 WNW 6 9 29.98 1015 10 16.0934 0 0
10:15 am 10:15 Sunny 35 1.5 32 -0.1 89 89 WNW 9 15 29.97 1015 10 16.0934 0 0
10:35 am 10:35 Sunny 36 2.1 32 0 86 86 NW 9 15 29.98 1015 10 16.0934 0 0
10:55 am 10:55 Sunny 37 3 33 0.3 83 83 WNW 8 13 29.98 1015 10 16.0934 0 0
11:15 am 11:15 Sunny 38 3.4 33 0.3 80 80 NW 9 15 29.97 1015 10 16.0934 0 0
11:35 am 11:35 Sunny 40 4.5 34 1 78 78 NW 10 17 29.95 1014 10 16.0934 0 0
11:55 am 11:55 Sunny 42 5.5 35 1.4 75 75 NW 9 15 29.94 1014 10 16.0934 0 0
12:15 pm 12:15 Sunny 43 6.1 35 1.7 74 74 NW 8 13 29.94 1014 10 16.0934 0 0
12:35 pm 12:35 Sunny 44 6.9 35 1.6 69 69 NW 12 19 29.93 1014 10 16.0934 0 0
12:55 pm 12:55 Sunny 46 8 36 2.2 67 67 NNW 13 20 29.91 1013 10 16.0934 0 0
1:15 pm 13:15 Sunny 47 8.1 35 1.5 63 63 NW 12 19 29.92 1013 10 16.0934 0 0
1:35 pm 13:35 Sunny 47 8.4 34 1.1 60 60 N 12 19 29.92 1013 10 16.0934 0 0
1:55 pm 13:55 Sunny 46 8 34 1.1 62 62 N 10 17 29.92 1013 10 16.0934 0 0
2:15 pm 14:15 Sunny 47 8.2 34 1.2 62 62 N 8 13 29.92 1013 10 16.0934 0 0
2:35 pm 14:35 Sunny 48 8.7 35 1.4 60 60 N 6 9 29.92 1013 10 16.0934 0 0
2:55 pm 14:55 Sunny 48 9 33 0.8 57 57 N 15 24 29.93 1014 10 16.0934 0 0
3:15 pm 15:15 Sunny 47 8.5 34 1.1 60 60 N 10 17 29.95 1014 10 16.0934 0 0
3:35 pm 15:35 Sunny 47 8.1 34 1 61 61 N 13 20 29.97 1015 10 16.0934 0 0
3:55 pm 15:55 Sunny 45 7.3 34 1 65 65 NNW 13 20 30 1016 10 16.0934 0 0
4:15 pm 16:15 Sunny 44 6.9 34 1.2 67 67 NNW 9 15 30.02 1017 10 16.0934 0 0
4:35 pm 16:35 Mostly Cloudy 44 6.5 34 0.9 68 68 NNW 13 20 30.03 1017 10 16.0934 0 0
4:55 pm 16:55 Mostly Cloudy 42 5.8 33 0.4 69 69 N 14 22 30.06 1018 10 16.0934 0 0
5:15 pm 17:15 Partly Cloudy 41 5 33 0.5 73 73 N 18 30 30.09 1019 10 16.0934 0 0
5:35 pm 17:35 Clear 40 4.4 33 0.5 76 76 NNW 12 19 30.1 1019 10 16.0934 0 0
5:55 pm 17:55 Clear 39 3.8 32 0.2 78 78 NNW 14 22 30.12 1020 10 16.0934 0 0
6:15 pm 18:15 Clear 38 3.3 32 0.2 80 80 NNW 10 17 30.14 1021 10 16.0934 0 0
6:35 pm 18:35 Clear 37 3 32 0.1 81 81 N 13 20 30.16 1021 10 16.0934 0 0
6:55 pm 18:55 Clear 37 2.6 32 0 83 83 N 14 22 30.17 1022 10 16.0934 0 0
7:15 pm 19:15 Clear 36 2.2 32 0 86 86 NNW 9 15 30.19 1022 10 16.0934 0 0
7:35 pm 19:35 Mostly Cloudy 36 2 32 0 87 87 N 14 22 30.21 1023 10 16.0934 0 0
7:55 pm 19:55 Cloudy 36 2 32 0.1 87 87 N 16 26 30.22 1023 10 16.0934 0 0
8:15 pm 20:15 Cloudy 36 2.1 32 0.1 87 87 N 18 30 30.23 1024 10 16.0934 0 0
8:35 pm 20:35 Cloudy 36 2 32 0.1 87 87 N 21 33 30.25 1024 10 16.0934 0 0
8:55 pm 20:55 Cloudy 35 1.8 32 0 88 88 N 23 37 30.26 1025 10 16.0934 0 0
9:15 pm 21:15 Cloudy 35 1.6 32 0 89 89 N 18 30 30.27 1025 10 16.0934 0 0
9:35 pm 21:35 Cloudy 34 1.3 32 0 91 91 N 17 28 30.28 1026 10 16.0934 0 0
9:55 pm 21:55 Cloudy 34 1.3 32 0.1 92 92 N 16 26 30.29 1026 7 11.26538 0 0
10:15 pm 22:15 Cloudy 34 1 32 -0.1 92 92 N 18 30 30.31 1026 7 11.26538 0 0
10:35 pm 22:35 Cloudy 33 0.8 32 -0.2 93 93 N 18 30 30.33 1027 7 11.26538 0 0
10:55 pm 22:55 Cloudy 33 0.8 31 -0.4 92 92 N 24 39 30.34 1027 7 11.26538 0 0
11:15 pm 23:15 Cloudy 33 0.5 30 -1 90 90 N 18 30 30.35 1028 10 16.0934 0 0
11:35 pm 23:35 Cloudy 33 0.5 30 -1 90 90 N 14 22 30.36 1028 10 16.0934 0 0
11:55 pm 23:55 Cloudy 33 0.4 30 -1 90 90 N 13 20 30.37 1029 10 16.0934 0 0

Powered by AerisWeather